www.pogodaiklimat.ru

Погода и климат >> Архив погоды >> Китай >> Гуанси-Чжуанский автономный район >> Гуйпин


ПОГОДА в Гуйпине

  • Прогноз погоды в Гуйпине
  • Монитор погоды в Гуйпине

АРХИВ ПОГОДЫ в Гуйпине

Время (UTC), дата Ветер
(напр.,м/с)
 
Видим.   Явления Облачность Т
(С)
Тd
(С)
f
(%)
Тe
(С)
Тes
(С)
Комфортность P
(гПа)
Po
(гПа)
Тmin
(С)
Tmax
(С)
R
(мм)
R24
(мм)
S
(см)
09 10.09 З 4 3300 м слаб. дождь 10/10 600 м
[]
+24.7 +23.3 92 +33 +33 очень
душно
1009.1 1004.0
12 10.09 СВ 3 10 км дождь 10/10 600 м
[]
+23.8 +23.0 95 +32 +32 очень
душно
1009.9 994.9 62
18 10.09 С 1 30 км ?/? +24.1 +22.5 91 +32 +32 очень
душно
1010.9 1005.8 +32.7 2
21 10.09 С 3 30 км н/о +23.5 +22.1 92 +30 +30 очень
душно
1011.8 1006.7
00 11.09 З 1 30 км 8/8 600 м
[]
+26.5 +23.8 85 +36 +37 очень
душно
1013.1 1008.0 2
03 11.09 В 5 30 км 3/3 1000 м
[]
+28.5 +23.4 74 +39 +45 очень
душно
1013.6 1008.6
06 11.09 В 3 30 км 5/5 1000 м
[]
+31.6 +24.2 65 +44 +51 опасность
перегрева
1011.4 1006.4 +23.2
09 11.09 С 3 30 км 3/3 1000 м
[]
+31.6 +23.2 61 +42 +44 опасность
перегрева
1009.5 1004.5
12 11.09 С 7 26 км 3/3 600 м
[]
+27.0 +22.6 77 +36 +36 очень
душно
1010.7 1005.6
18 11.09 СЗ 2 16 км ?/? +25.1 +23.0 88 +33 +33 очень
душно
1011.0 1005.9 +32.2
21 11.09 С 2 16 км н/о +24.4 +22.5 89 +32 +32 очень
душно
1010.5 1005.4
00 12.09 ЮЗ 2 8000 м 3/3 1000 м
[]
+25.8 +23.8 89 +35 +37 очень
душно
1012.2 1007.1
03 12.09 Ю 3 9000 м 8/8 1000 м
[]
+30.6 +25.7 75 +45 +48 опасность
перегрева
1012.4 1007.4
06 12.09 Ю 2 21 км 3/3 1500 м
[]
+32.7 +23.9 60 +44 +56 опасность
перегрева
1009.6 1004.6 +23.8
09 12.09 ЮЗ 1 24 км 1/1 1500 м
[]
+34.1 +23.5 54 +45 +49 опасность
перегрева
1007.5 1002.6
12 12.09 С 5 17 км 3/3 1000 м
[]
+27.9 +24.5 82 +39 +39 очень
душно
1008.3 1003.3
18 12.09 СЗ 3 10 км ?/? +26.3 +24.3 89 +37 +37 очень
душно
1008.8 1009.0 +34.6
21 12.09 З 2 9000 м н/о +27.2 +24.5 85 +38 +38 очень
душно
1008.6 1003.6
00 13.09 ЮЗ 2 6000 м дымка ясно +27.4 +25.4 89 +40 +43 очень
душно
1009.9 1004.9
03 13.09 ЮЗ 3 9000 м 3/3 1000 м
[]
+31.2 +26.0 74 +47 +56 опасность
перегрева
1009.5 1004.5
06 13.09 З 1 16 км 3/3 1000 м
[]
+34.2 +25.9 62 +50 +64 опасность
перегрева
1007.2 1002.3 +25.4
09 13.09 ЮЗ 2 22 км 3/3 1000 м
[]
+34.9 +23.6 52 +46 +48 опасность
перегрева
1006.1 1001.2
12 13.09 С 5 13 км 1/1
[]
+28.3 +24.9 82 +41 +41 опасность
перегрева
1007.0 1002.0
18 13.09 СЗ 2 10 км ?/? +27.7 +24.7 84 +39 +39 очень
душно
1008.1 1003.1 +35.1
21 13.09 З 3 8000 м н/о +28.1 +24.9 83 +40 +40 очень
душно
1007.8 1002.8
00 14.09 Ю 2 н/о дымка 4/4
[]
+28.2 +25.6 86 +42 +43 опасность
перегрева
1009.4 1004.4
03 14.09 Ю 2 н/о дымка 6/6 1000 м
[]
+31.3 +26.3 75 +47 +54 опасность
перегрева
1009.6 1004.6
06 14.09 СЗ 3 17 км 9/9 1000 м
[]
+30.5 +22.9 64 +40 +42 очень
душно
1007.0 1002.0 +26.9
09 14.09 З 4 14 км в посл. час дождь 10/10 600 м
[]
+25.8 +23.1 85 +34 +34 очень
душно
1008.1 1003.0
12 14.09 С 3 28 км {дождь} 9/9 600 м
[]
+23.7 +21.6 88 +30 +30 очень
душно
1008.5 1003.4 2
18 14.09 ЮЗ 2 13 км ?/? +24.0 +22.3 90 +31 +31 очень
душно
1009.4 1004.3 +33.3
21 14.09 ЮЗ 3 3800 м дымка н/о +23.9 +23.0 95 +32 +32 очень
душно
1008.8 1003.7
00 15.09 З 3 н/о дымка 5/5 1000 м
[]
+24.8 +23.4 92 +33 +34 очень
душно
1010.4 1005.3
03 15.09 В 3 8000 м 4/4 1500 м
[]
+29.1 +24.2 75 +41 +48 опасность
перегрева
1010.7 1005.7
06 15.09 СВ 3 12 км 6/6 1500 м
[]
+31.2 +24.3 67 +43 +49 опасность
перегрева
1007.7 1002.7 +23.2
09 15.09 СВ 5 11 км 3/3 1500 м
[]
+30.8 +24.7 70 +44 +45 опасность
перегрева
1006.1 1001.1
12 15.09 С 5 18 км 3/3 1000 м
[]
+27.7 +23.1 76 +37 +37 очень
душно
1007.6 1002.6
18 15.09 С 5 21 км ?/? +25.7 +22.0 80 +33 +33 очень
душно
1008.5 1003.4 +31.9
21 15.09 С 4 14 км н/о +24.6 +22.5 88 +32 +32 очень
душно
1008.4 1003.3
00 16.09 Ю 1 11 км 3/3 1000 м
[]
+27.0 +23.9 83 +37 +39 очень
душно
1009.8 1004.8
03 16.09 В 4 12 км 3/3 1500 м
[]
+30.7 +24.1 68 +43 +50 опасность
перегрева
1010.0 1005.0
06 16.09 С 3 13 км 3/3 1500 м
[]
+32.9 +23.5 58 +44 +54 опасность
перегрева
1006.8 1001.9 +24.2
09 16.09 З 3 11 км 3/3 1500 м
[]
+33.1 +24.6 61 +46 +48 опасность
перегрева
1005.6 1000.7
12 16.09 С 4 9000 м 8/8 1000 м
[]
+28.2 +24.6 81 +40 +40 очень
душно
1006.6 1001.6
18 16.09 С 8 3700 м сильн. дождь ?/? +24.2 +22.6 91 +32 +32 очень
душно
1008.5 1003.4 +34.3 5
21 16.09 С 4 н/о дымка н/о +25.0 +23.8 93 +34 +34 очень
душно
1008.7 1003.6
00 17.09 З 1 7000 м 8/8 1000 м
[]
+26.1 +24.0 88 +36 +36 очень
душно
1010.9 1005.8 2
03 17.09 В 4 8000 м 4/4 1500 м
[]
+29.7 +24.6 74 +42 +48 опасность
перегрева
1011.7 1006.7

 

Местоположение метеостанции Гуйпин (Гуанси-Чжуанский автономный район, Китай): широта 23.40 долгота 110.08 высота над уровнем моря 44 м.

В архиве по умолчанию представлена погода в Гуйпине за последнюю неделю. Архивные данные за месяц целиком и за предыдущие месяцы, начиная с января 2011 года, Вы можете получить, выбрав интересующий диапазон дат из раскрывающегося списка и нажав кнопку "Ввод!".


*Определитесь, кто Вы:
робот инопланетянин человек

Внимание! Время в таблицах - всемирное. Для получения местного времени необходимо прибавить поправку, которая равна 8 ч.

Смотрите также архив погоды в соседних городах и на ближайших метеорологических станциях:

Погода в Мэншане (Гуанси-Чжуанский автономный район, Китай) (99 км)
Погода в Учжоу (Гуанси-Чжуанский автономный район, Китай) (125 км)
Погода в Лючжоу (Гуанси-Чжуанский автономный район, Китай) (126 км)
Погода в Синьи (Цзянсу, Китай) (146 км)
Погода в Наньнине (Гуанси-Чжуанский автономный район, Китай) (210 км)
Погода в Гуйлине (Гуанси-Чжуанский автономный район, Китай) (216 км)
Погода в Циньчжоу (Гуанси-Чжуанский автономный район, Китай) (221 км)
Погода в Бэйхае (Гуанси-Чжуанский автономный район, Китай) (236 км)
Погода в Чжаньцзяне (Гуандун, Китай) (245 км)
Погода в Гаояо (Гуандун, Китай) (246 км)

Пояснения к столбцам:

Ветер - указаны скорость ветра в м/с - средняя за 10 мин, порывы в срок и между сроками (в фигурных скобках) и направление, откуда дует ветер: С - северный, СВ - северо-восточный, В - восточный, ЮВ - юго-восточный, Ю - южный, ЮЗ - юго-западный, З - западный, СЗ - северо-западный.
Видимость - горизонтальная дальность видимости в метрах или километрах. При видимости от 1 до 10 км при отсутствии осадков обычно наблюдается дымка, при ухудшении видимости до 1 км и менее - туман. В сухую погоду видимость может ухудшаться дымом, пылью или мглою.
Явления - указаны атмосферные явления, наблюдавшиеся в срок или в последний час перед сроком; фигурными скобками обозначены явления, наблюдавшиеся между сроками (за 1-3 часа до срока); квадратными скобками обозначены град или гололедные отложения с указанием их диаметра в мм.
Облачность - указаны через наклонную черту общая и нижняя облачность в баллах и высота нижней границы облаков в метрах; квадратными скобками обозначены формы облаков: Ci - перистые, Cs - перисто-слоистые, Cc - перисто-кучевые, Ac - высококучевые, As - высокослоистые, Sc - слоисто-кучевые, Ns - слоисто-дождевые, Cu - кучевые, Cb - кучево-дождевые. Подробнее классификацию облаков см. в Атласе облаков (PDF).
T - Температура воздуха - температура, измеренная на высоте 2 м над землей.
Td - Температура точки росы - температура, при понижении до которой содержащийся в воздухе водяной пар достигнет насыщения.
f - Относительная влажность воздуха - влажноcть воздуха, измеренная на высоте 2 м над землей.
Te - Эффективная температура - температура, которую ощущает одетый по сезону человек в тени. Характеристика душности погоды. При расчете учитывается влияние влажности воздуха и скорости ветра на теплоощущения человека.
Tes - Эффективная температура на солнце - температура, которую ощущает человек, с поправкой на солнечный нагрев. Характеристика знойности погоды. Зависит от высоты солнца над горизонтом, облачности и скорости ветра. Ночью, в пасмурную погоду, а также при ветре 12 м/с и более поправка равна нулю.
P - Атмосферное давление - приведенное к уровню моря атмосферное давление.
Po - Атмосферное давление - измеренное на уровне метеостанции атмосферное давление.
Tmin - Минимальная температура - минимум температуры воздуха на высоте 2 м над землей.
Tmax - Максимальная температура - максимум температуры воздуха на высоте 2 м над землей.
R - Количество осадков - Количество выпавших осадков за период времени, мм. При наведении курсора мыши на число - период времени, за который выпало указанное количество осадков.
R24 - Количество осадков - Количество выпавших осадков за 24 часа, мм.
S - Снежный покров - Высота снежного покрова, см. При наведении курсора мыши на число - состояние снежного покрова и степень покрытия местности в баллах.